Tillamook, OR

9:20 PM PDT on September 26, 2016 (GMT -0700)
Tillamook

Weather History for KTMK - October, 2012

Change the Weather History Date:

Monday, October 15, 2012

  Actual Average (KMMV) Record (KMMV)
Temperature  
Mean Temperature 62 °F 52 °F  
Max Temperature 66 °F 63 °F 89 °F (1931)
Min Temperature 57 °F 41 °F 27 °F (1897)
Degree Days  
Heating Degree Days 4 13  
Month to date heating degree days 160  
Since 1 July heating degree days 376  
Cooling Degree Days 0 0  
Month to date cooling degree days 0  
Year to date cooling degree days 214  
Growing Degree Days 12 (Base 50)    
Moisture  
Dew Point 60 °F    
Average Humidity 99    
Maximum Humidity 100    
Minimum Humidity 94    
Precipitation  
Precipitation 1.23 in 0.09 in 1.06 in (1947)
Month to date precipitation 1.19  
Year to date precipitation 24.90  
Sea Level Pressure  
Sea Level Pressure 29.86 in    
Wind  
Wind Speed 8 mph (South)    
Max Wind Speed 24 mph    
Max Gust Speed 40 mph    
T = Trace of Precipitation, MM = Missing Value Source: NWS Daily Summary

Daily Weather History Graph

Daily Weather History Graph

Search for Another Location

Airport or City:

Trip Planner

Search our weather history database for the weather conditions in past years. The results will help you decide how hot, cold, wet, or windy it might be!

Date:

Astronomy

Oct. 15, 2012 Rise Set
Actual Time 8:32 AM MDT 7:28 PM MDT
Civil Twilight 8:02 AM MDT 7:58 PM MDT
Nautical Twilight 7:28 AM MDT 8:32 PM MDT
Astronomical Twilight 6:53 AM MDT 9:07 PM MDT
Moon 8:52 AM MDT (10/15) 7:27 PM MDT (10/15)
Length of Visible Light 11h 56m
Length of Day
10h 56m
New Moon, 0% of the Moon is Illuminated
Oct 15
New Moon
Oct 21
First Quarter
Oct 29
Full
Nov 6
Last Quarter
Nov 13
New

Hourly Weather History & Observations

Time (MDT) Temp. Dew Point Humidity Pressure Visibility Wind Dir Wind Speed Gust Speed Precip Events Conditions
12:15 AM 59.0 °F 57.2 °F 94% 29.94 in - South 13.8 mph 18.4 mph N/A   Overcast
12:35 AM 59.0 °F 59.0 °F 100% 29.95 in - SSW 11.5 mph 18.4 mph N/A   Unknown
12:55 AM 59.0 °F 57.2 °F 94% 29.94 in - South 9.2 mph - N/A   Overcast
1:15 AM 59.0 °F 57.2 °F 94% 29.95 in - SSW 13.8 mph 18.4 mph N/A   Overcast
1:35 AM 59.0 °F 57.2 °F 94% 29.96 in - SSW 12.7 mph 17.3 mph 0.02 in   Unknown
1:55 AM 59.0 °F 57.2 °F 94% 29.96 in - South 12.7 mph 18.4 mph 0.02 in   Unknown
2:15 AM 59.0 °F 57.2 °F 94% 29.96 in - South 8.1 mph - 0.01 in   Unknown
2:35 AM 59.0 °F 57.2 °F 94% 29.96 in - South 9.2 mph - 0.01 in   Unknown
2:55 AM 57.2 °F 57.2 °F 100% 29.96 in - South 9.2 mph - 0.01 in   Overcast
3:15 AM 57.2 °F 57.2 °F 100% 29.96 in - South 4.6 mph - N/A   Unknown
3:35 AM 57.2 °F 57.2 °F 100% 29.97 in - Calm Calm - 0.01 in   Unknown
3:55 AM 57.2 °F 57.2 °F 100% 29.97 in - SW 3.5 mph - 0.01 in   Unknown
4:15 AM 57.2 °F 57.2 °F 100% 29.96 in - SSW 5.8 mph - 0.01 in   Overcast
4:55 AM 57.2 °F 57.2 °F 100% 29.97 in - SW 6.9 mph - 0.02 in   Unknown
5:15 AM 57.2 °F 57.2 °F 100% 29.97 in - Calm Calm - 0.01 in   Overcast
5:35 AM 57.2 °F 57.2 °F 100% 29.96 in - Calm Calm - 0.02 in   Overcast
5:55 AM 57.2 °F 57.2 °F 100% 29.96 in - Calm Calm - 0.02 in   Unknown
6:15 AM 57.2 °F 57.2 °F 100% 29.96 in - South 3.5 mph - N/A   Unknown
6:35 AM 57.2 °F 57.2 °F 100% 29.96 in - South 3.5 mph - N/A   Overcast
6:55 AM 57.2 °F 57.2 °F 100% 29.96 in - Calm Calm - 0.01 in   Unknown
7:15 AM 57.2 °F 57.2 °F 100% 29.97 in - Calm Calm - N/A   Overcast
7:35 AM 57.2 °F 57.2 °F 100% 29.97 in - Calm Calm - N/A   Unknown
7:55 AM 57.2 °F 57.2 °F 100% 29.96 in - Calm Calm - N/A   Unknown
8:15 AM 57.2 °F 57.2 °F 100% 29.96 in - Calm Calm - N/A   Overcast
8:35 AM 57.2 °F 57.2 °F 100% 29.96 in - Calm Calm - N/A   Overcast
8:55 AM 57.2 °F 57.2 °F 100% 29.96 in - Calm Calm - N/A   Overcast
9:15 AM 57.2 °F 57.2 °F 100% 29.96 in - Calm Calm - N/A   Unknown
9:35 AM 57.2 °F 57.2 °F 100% 29.96 in - Calm Calm - N/A   Unknown
9:55 AM 57.2 °F 57.2 °F 100% 29.96 in - Calm Calm - N/A   Overcast
10:15 AM 59.0 °F 59.0 °F 100% 29.96 in - Calm Calm - N/A   Overcast
10:35 AM 59.0 °F 59.0 °F 100% 29.95 in - Calm Calm - N/A   Overcast
10:55 AM 59.0 °F 59.0 °F 100% 29.94 in - Calm Calm - N/A   Unknown
11:15 AM 59.0 °F 59.0 °F 100% 29.93 in - Calm Calm - N/A   Unknown
11:35 AM 59.0 °F 59.0 °F 100% 29.92 in - Calm Calm - 0.01 in   Overcast
11:55 AM 59.0 °F 59.0 °F 100% 29.91 in - Calm Calm - 0.01 in   Overcast
12:15 PM 60.8 °F 60.8 °F 100% 29.91 in - NE 3.5 mph - N/A   Overcast
12:35 PM 60.8 °F 60.8 °F 100% 29.89 in - Calm Calm - 0.01 in   Overcast
12:55 PM 60.8 °F 60.8 °F 100% 29.89 in - Calm Calm - 0.02 in   Overcast
1:15 PM 62.6 °F 62.6 °F 100% 29.88 in - SSE 5.8 mph - N/A   Unknown
1:35 PM 62.6 °F 62.6 °F 100% 29.86 in - South 9.2 mph - 0.02 in   Unknown
1:55 PM 62.6 °F 62.6 °F 100% 29.84 in - SSE 16.1 mph 19.6 mph 0.02 in   Unknown
2:15 PM 64.4 °F 64.4 °F 100% 29.84 in - South 12.7 mph 19.6 mph N/A   Overcast
2:35 PM 62.6 °F 62.6 °F 100% 29.83 in - Calm Calm - 0.07 in   Overcast
2:55 PM 62.6 °F 62.6 °F 100% 29.82 in - Calm Calm - 0.22 in   Overcast
3:15 PM 62.6 °F 62.6 °F 100% 29.81 in - Calm Calm - 0.17 in   Overcast
3:35 PM 62.6 °F 62.6 °F 100% 29.79 in - South 20.7 mph 27.6 mph 0.32 in   Overcast
3:55 PM 64.4 °F 64.4 °F 100% 29.78 in - South 13.8 mph 24.2 mph 0.39 in   Unknown
4:15 PM 64.4 °F 64.4 °F 100% 29.75 in - SSE 13.8 mph 27.6 mph 0.05 in   Unknown
4:35 PM 64.4 °F 64.4 °F 100% 29.75 in - South 11.5 mph 21.9 mph 0.05 in   Unknown
4:55 PM 66.2 °F 64.4 °F 94% 29.75 in - South 10.4 mph - 0.05 in   Overcast
5:15 PM 66.2 °F 64.4 °F 94% 29.74 in - South 16.1 mph 19.6 mph 0.03 in   Overcast
5:35 PM 66.2 °F 66.2 °F 100% 29.73 in - South 5.8 mph - 0.05 in   Overcast
5:55 PM 66.2 °F 66.2 °F 100% 29.73 in - SSW 17.3 mph 26.5 mph 0.13 in   Overcast
6:15 PM 64.4 °F 64.4 °F 100% 29.72 in - SSW 23.0 mph 33.4 mph 0.14 in   Unknown
6:35 PM 64.4 °F 64.4 °F 100% 29.72 in - South 24.2 mph 40.3 mph 0.15 in   Unknown
6:55 PM 64.4 °F 64.4 °F 100% 29.72 in - South 23.0 mph 39.1 mph 0.15 in   Unknown
7:15 PM 62.6 °F 62.6 °F 100% 29.73 in - South 24.2 mph 38.0 mph N/A   Unknown
7:35 PM 62.6 °F 62.6 °F 100% 29.72 in - SSW 16.1 mph 26.5 mph N/A   Unknown
7:55 PM 62.6 °F 62.6 °F 100% 29.70 in - SSW 16.1 mph 24.2 mph N/A   Unknown
8:15 PM 62.6 °F 62.6 °F 100% 29.71 in - SSW 20.7 mph 25.3 mph 0.06 in   Unknown
8:35 PM 62.6 °F 62.6 °F 100% 29.70 in - South 20.7 mph 29.9 mph 0.08 in   Unknown
8:55 PM 62.6 °F 62.6 °F 100% 29.71 in - SSW 18.4 mph 26.5 mph 0.11 in   Unknown
9:15 PM 62.6 °F 62.6 °F 100% 29.72 in - SSW 20.7 mph 29.9 mph 0.01 in   Overcast
9:35 PM 62.6 °F 60.8 °F 94% 29.72 in - SSW 15.0 mph 25.3 mph 0.01 in   Unknown
9:55 PM 60.8 °F 60.8 °F 100% 29.73 in - SSW 17.3 mph 25.3 mph 0.01 in   Overcast
10:15 PM 60.8 °F 60.8 °F 100% 29.73 in - South 19.6 mph 28.8 mph N/A   Unknown
10:35 PM 60.8 °F 60.8 °F 100% 29.73 in - SSW 9.2 mph - N/A   Overcast
10:55 PM 60.8 °F 60.8 °F 100% 29.73 in - SSW 11.5 mph 18.4 mph 0.01 in   Overcast
11:15 PM 62.6 °F 62.6 °F 100% 29.73 in - SSW 17.3 mph 23.0 mph 0.01 in   Unknown
11:35 PM 60.8 °F 60.8 °F 100% 29.73 in - SW 13.8 mph 19.6 mph 0.02 in   Overcast
11:55 PM 60.8 °F 60.8 °F 100% 29.73 in - SW 11.5 mph 16.1 mph 0.02 in   Overcast